[[{"header":{"parameterUnit":"m.s-1","parameterCategory":1,"la1":30.2991,"la2":30.254,"lo1":-89.0895,"lo2":-89.0444,"dy":0.0017,"dx":0.0017,"nx":28,"ny":28,"refTime":"2025-08-04T21:00:00:Z","depth":0,"parameterNumber":2,"parameterNumberName":"U-component_of_WINDS"},"data":[0,0,0,0,0,0,0,0,0,0,0,0,0,0,0,0,0,0,0,0,0,0,0,0,0,0,0,0,0,0,0,0,0,0,0,0,0,0,0,0,0,0,0,0,0,0,0,0,0,0,0,0,0,0,0,0,0,0,-1.2252,-1.2252,0,-1.2302,-1.2303,-1.2303,-1.2322,-1.2322,-1.2322,-1.2321,-1.2375,-1.2377,-1.2378,0,0,0,0,0,0,0,0,0,0,0,0,0,-1.2173,-1.2174,-1.2251,-1.2252,-1.2253,-1.2302,-1.2303,-1.2303,-1.2322,-1.2322,-1.2322,-1.2321,-1.2374,-1.2376,-1.2378,0,0,0,0,0,0,0,0,0,0,0,0,0,-1.2214,-1.2175,-1.2251,-1.2268,-1.227,-1.2302,-1.2303,-1.2304,-1.2322,-1.2322,-1.2322,-1.2321,-1.2374,-1.2376,-1.2379,-1.2398,0,0,-1.2386,-1.2387,0,0,0,0,0,0,0,0,-1.2211,-1.2217,-1.2265,-1.2267,-1.2269,-1.2305,-1.2295,-1.2335,-1.2322,-1.2302,-1.2321,-1.2321,-1.2352,-1.2356,-1.2366,-1.2401,-1.2403,-1.2386,-1.2387,-1.2388,-1.2389,0,0,0,0,0,0,0,-1.2209,-1.2214,-1.2272,-1.2266,-1.2268,-1.2273,-1.2279,-1.2302,-1.2328,-1.2304,-1.2305,-1.2311,-1.2353,-1.2364,-1.2368,-1.2404,-1.2386,-1.2388,-1.2389,-1.239,-1.2457,-1.2457,0,0,0,0,0,0,-1.2203,-1.2212,-1.227,-1.2273,-1.2239,-1.2275,-1.2281,-1.2294,-1.2328,-1.2333,-1.2311,-1.2312,-1.236,-1.2365,-1.237,-1.2395,-1.2388,-1.2391,-1.2392,-1.2457,-1.2457,-1.2457,0,0,0,0,0,0,-1.2201,-1.2208,-1.2268,-1.2243,-1.2251,-1.2277,-1.2291,-1.2295,-1.2306,-1.2333,-1.2338,-1.2317,-1.236,-1.2366,-1.2391,-1.2397,-1.2392,-1.2394,-1.2456,-1.2457,-1.2457,-1.2446,0,0,0,0,0,0,-1.2199,-1.2207,-1.2214,-1.2243,-1.2252,-1.2288,-1.2291,-1.2296,-1.231,-1.2311,-1.234,-1.2345,-1.236,-1.2387,-1.2393,-1.24,-1.2396,-1.2456,-1.2456,-1.2457,-1.2446,-1.2446,-1.2446,0,0,0,0,0,-1.2196,-1.221,-1.2215,-1.2221,-1.2262,-1.2288,-1.2293,-1.231,-1.231,-1.2318,-1.2336,-1.2344,-1.2395,-1.239,-1.2397,-1.2405,-1.2455,-1.2456,-1.2457,-1.2446,-1.2446,-1.2446,0,0,0,0,0,0,-1.2182,-1.2214,-1.222,-1.2243,-1.2262,-1.2291,-1.2302,-1.231,-1.233,-1.2331,-1.2351,-1.2358,-1.2381,-1.2395,-1.2388,-1.2425,-1.2426,-1.2428,-1.2415,-1.2416,-1.2416,-1.2412,-1.2398,0,0,0,0,0,-1.2181,-1.2199,-1.2226,-1.2244,-1.2254,-1.2276,-1.2288,-1.2299,-1.232,-1.2329,-1.2349,-1.2369,-1.239,-1.2404,-1.2425,-1.2448,-1.2455,-1.2457,-1.2457,-1.2457,-1.2459,-1.2472,-1.2474,-1.246,-1.246,-1.246,0,0,-1.2181,-1.22,-1.221,-1.2242,-1.2258,-1.2277,-1.2283,-1.2302,-1.2317,-1.2332,-1.2356,-1.2371,-1.2396,-1.242,-1.2432,-1.2433,-1.2464,-1.2458,-1.2458,-1.246,-1.2473,-1.2475,-1.2476,-1.2461,-1.246,-1.246,0,0,-1.2189,-1.2206,-1.2222,-1.2239,-1.2263,-1.2278,-1.2282,-1.2309,-1.2319,-1.2344,-1.2356,-1.2373,-1.2409,-1.2426,-1.244,-1.2454,-1.2463,-1.246,-1.2461,-1.2474,-1.2475,-1.2476,-1.2482,-1.2484,-1.2462,-1.2462,-1.2462,0,-1.2186,-1.2214,-1.223,-1.2249,-1.2263,-1.2277,-1.2294,-1.231,-1.234,-1.2349,-1.235,-1.2395,-1.2412,-1.2441,-1.2444,-1.2454,-1.246,-1.2457,-1.2474,-1.2475,-1.2476,-1.2482,-1.2484,-1.2461,-1.2461,-1.2461,-1.2462,0,-1.2208,-1.2227,-1.2238,-1.2266,-1.2281,-1.2299,-1.2319,-1.2332,-1.2342,-1.2356,-1.2381,-1.2403,-1.2428,-1.2436,-1.2446,-1.2466,-1.2465,-1.247,-1.2471,-1.2477,-1.2482,-1.2485,-1.2461,-1.2461,-1.2461,-1.2461,0,0,-1.221,-1.2247,-1.225,-1.2263,-1.2291,-1.2307,-1.2325,-1.2349,-1.236,-1.2381,-1.2398,-1.2427,-1.2431,-1.2446,-1.2458,-1.2469,-1.248,-1.2472,-1.2473,-1.2473,-1.2503,-1.25,-1.2502,-1.2485,-1.2486,-1.2486,-1.2501,0,-1.2223,-1.2256,-1.2271,-1.2298,-1.2317,-1.233,-1.2346,-1.2366,-1.238,-1.2398,-1.2413,-1.2434,-1.2437,-1.2447,-1.2458,-1.2476,-1.2486,-1.2475,-1.2502,-1.2503,-1.2495,-1.2505,-1.2502,-1.2515,-1.2504,-1.2504,-1.2504,0,-1.2242,-1.2262,-1.229,-1.2315,-1.2324,-1.2338,-1.2361,-1.2378,-1.24,-1.241,-1.2426,-1.2438,-1.2458,-1.2458,-1.2487,-1.2479,-1.2491,-1.2501,-1.2502,-1.2505,-1.2504,-1.251,-1.252,-1.2522,-1.2508,-1.2507,-1.2507,0,-1.2241,-1.2275,-1.2296,-1.2306,-1.2337,-1.2346,-1.236,-1.2381,-1.2395,-1.2415,-1.2424,-1.2447,-1.246,-1.2477,-1.2495,-1.2493,-1.2522,-1.2523,-1.2531,-1.2531,-1.2538,-1.2537,-1.2551,-1.2544,-1.2544,-1.2544,-1.2544,0,-1.2254,-1.2271,-1.2296,-1.2309,-1.2328,-1.2346,-1.2365,-1.2379,-1.2398,-1.2415,-1.2428,-1.2444,-1.2465,-1.2484,-1.2498,-1.252,-1.2525,-1.2534,-1.2538,-1.2533,-1.2532,-1.2542,-1.2541,-1.2545,-1.2545,-1.2545,-1.2544,0,-1.2257,-1.2274,-1.2298,-1.2324,-1.2331,-1.2344,-1.2367,-1.2381,-1.2395,-1.2416,-1.2422,-1.2445,-1.2467,-1.2486,-1.2515,-1.2525,-1.2548,-1.2552,-1.254,-1.2542,-1.2549,-1.2549,-1.257,-1.2574,-1.2564,-1.2564,-1.2564,0,-1.2264,-1.2278,-1.2305,-1.2316,-1.2329,-1.2348,-1.2361,-1.2379,-1.2392,-1.2418,-1.2429,-1.2452,-1.2471,-1.2506,-1.2526,-1.2548,-1.2553,-1.2559,-1.2557,-1.2552,-1.2554,-1.2553,-1.2555,-1.2559,-1.2559,-1.2559,-1.2559,0,-1.2276,-1.2283,-1.2302,-1.2323,-1.2339,-1.2356,-1.2375,-1.2384,-1.2405,-1.242,-1.2442,-1.2457,-1.2486,-1.2509,-1.2534,-1.2548,-1.2558,-1.256,-1.2563,-1.2559,-1.2552,-1.2556,-1.2541,-1.2559,-1.2559,-1.2559,-1.2559,-1.2559,-1.2282,-1.2294,-1.2315,-1.2335,-1.235,-1.2367,-1.2381,-1.2396,-1.2415,-1.244,-1.2449,-1.2472,-1.2494,-1.2528,-1.2542,-1.2561,-1.2562,-1.2567,-1.2568,-1.2569,-1.2569,-1.2548,-1.2565,-1.2565,-1.2565,-1.2565,-1.2565,0,-1.2294,-1.2308,-1.2326,-1.2351,-1.2367,-1.2373,-1.2393,-1.2406,-1.2426,-1.2445,-1.2464,-1.2489,-1.2511,-1.2532,-1.2556,-1.2567,-1.2571,-1.2572,-1.2572,-1.2575,-1.2566,-1.2561,-1.2568,-1.2568,-1.2568,-1.2568,-1.2568,-1.2568,-1.2303,-1.2324,-1.2334,-1.2363,-1.2377,-1.2399,-1.241,-1.2425,-1.244,-1.2468,-1.2486,-1.2499,-1.2519,-1.2544,-1.2565,-1.257,-1.2579,-1.2578,-1.2585,-1.2576,-1.2576,-1.2575,-1.2571,-1.258,-1.258,-1.2593,-1.2593,-1.2593]},{"header":{"parameterUnit":"m.s-1","parameterCategory":1,"la1":30.2991,"la2":30.254,"lo1":-89.0895,"lo2":-89.0444,"dy":0.0017,"dx":0.0017,"nx":28,"ny":28,"refTime":"2025-08-04T21:00:00:Z","depth":0,"parameterNumber":3,"parameterNumberName":"V-component_of_WINDS"},"data":[0,0,0,0,0,0,0,0,0,0,0,0,0,0,0,0,0,0,0,0,0,0,0,0,0,0,0,0,0,0,0,0,0,0,0,0,0,0,0,0,0,0,0,0,0,0,0,0,0,0,0,0,0,0,0,0,0,0,0.3003,0.3002,0,0.2949,0.2949,0.2948,0.2887,0.2886,0.2886,0.2885,0.2829,0.2828,0.2828,0,0,0,0,0,0,0,0,0,0,0,0,0,0.3051,0.305,0.3003,0.3002,0.3001,0.295,0.2949,0.2948,0.2887,0.2886,0.2885,0.2884,0.2829,0.2828,0.2828,0,0,0,0,0,0,0,0,0,0,0,0,0,0.3017,0.305,0.3003,0.2965,0.2961,0.295,0.2949,0.2948,0.2888,0.2886,0.2885,0.2884,0.2829,0.2828,0.2827,0.2849,0,0,0.2824,0.2824,0,0,0,0,0,0,0,0,0.3019,0.3015,0.2971,0.2968,0.2963,0.2924,0.2945,0.2915,0.2888,0.2916,0.2885,0.2883,0.2861,0.2858,0.2851,0.2846,0.2844,0.2824,0.2824,0.2823,0.2823,0,0,0,0,0,0,0,0.3021,0.3017,0.2982,0.2971,0.2966,0.295,0.2944,0.2939,0.2897,0.2913,0.2909,0.2903,0.2859,0.2852,0.2849,0.2843,0.2824,0.2824,0.2823,0.2823,0.2852,0.2854,0,0,0,0,0,0,0.303,0.302,0.2983,0.298,0.2988,0.295,0.2943,0.2938,0.2897,0.2889,0.2904,0.29,0.2854,0.285,0.2847,0.2869,0.2823,0.2822,0.2822,0.2851,0.2853,0.2854,0,0,0,0,0,0,0.3031,0.3027,0.2985,0.2999,0.2992,0.2951,0.2945,0.2937,0.293,0.289,0.2882,0.2905,0.2853,0.2848,0.2849,0.2866,0.2822,0.2821,0.2849,0.2852,0.2853,0.2913,0,0,0,0,0,0,0.3033,0.3028,0.3036,0.2999,0.2992,0.2989,0.2946,0.2937,0.2929,0.2923,0.2888,0.2881,0.2851,0.285,0.2848,0.2864,0.282,0.2848,0.285,0.2853,0.2909,0.2917,0.2923,0,0,0,0,0,0.3035,0.3055,0.3037,0.3033,0.3001,0.299,0.2986,0.2951,0.293,0.2938,0.2912,0.2882,0.2864,0.2851,0.2847,0.2863,0.2846,0.285,0.2853,0.2906,0.2915,0.2923,0,0,0,0,0,0,0.3094,0.3049,0.3029,0.3038,0.3018,0.298,0.2988,0.2962,0.2948,0.2943,0.2901,0.2893,0.2899,0.2881,0.2867,0.2882,0.2851,0.2854,0.2893,0.2902,0.2908,0.2913,0.282,0,0,0,0,0,0.3108,0.3104,0.3064,0.3076,0.3067,0.303,0.3024,0.2999,0.2977,0.2968,0.2942,0.2922,0.2911,0.2905,0.2893,0.2906,0.2898,0.2916,0.2923,0.2929,0.2931,0.2936,0.2944,0.2864,0.2864,0.2864,0,0,0.3138,0.3113,0.3112,0.3088,0.3069,0.3065,0.3023,0.3021,0.3017,0.2967,0.2967,0.2947,0.2921,0.2928,0.293,0.2913,0.2951,0.2932,0.2938,0.2937,0.294,0.2948,0.2955,0.2866,0.2866,0.2866,0,0,0.3189,0.317,0.3177,0.316,0.3133,0.3108,0.311,0.3075,0.3061,0.3059,0.3022,0.3016,0.3,0.2983,0.2972,0.3016,0.2988,0.3014,0.305,0.3056,0.3062,0.3067,0.3083,0.3089,0.3016,0.3017,0.3017,0,0.3229,0.3221,0.3184,0.3184,0.3174,0.3129,0.3136,0.3121,0.3092,0.3086,0.3068,0.3046,0.3025,0.3028,0.3038,0.3031,0.3032,0.3017,0.3064,0.3069,0.3074,0.3088,0.3094,0.302,0.3019,0.3019,0.3019,0,0.3271,0.3267,0.3276,0.3249,0.324,0.3244,0.3207,0.3202,0.3178,0.3154,0.3153,0.3127,0.3109,0.3107,0.3083,0.3106,0.3097,0.3072,0.3041,0.3085,0.3098,0.3103,0.3024,0.3023,0.3022,0.3021,0,0,0.3359,0.3312,0.3316,0.3303,0.327,0.3266,0.3267,0.3249,0.3246,0.3227,0.3227,0.3214,0.3191,0.3178,0.3152,0.3157,0.3194,0.3132,0.313,0.3144,0.3217,0.3236,0.3243,0.3175,0.3176,0.3177,0.3219,0,0.3405,0.3404,0.3371,0.338,0.3375,0.3332,0.3333,0.3313,0.3291,0.3283,0.3258,0.3249,0.322,0.3212,0.3215,0.3189,0.3208,0.3185,0.3174,0.3174,0.3182,0.325,0.3269,0.3311,0.3224,0.3225,0.3225,0,0.3458,0.3443,0.3451,0.3418,0.3414,0.3416,0.3397,0.339,0.3366,0.335,0.3336,0.3306,0.3304,0.3275,0.3271,0.3257,0.325,0.3236,0.3237,0.3235,0.3203,0.3249,0.3323,0.3329,0.3233,0.3232,0.3232,0,0.3521,0.3503,0.3505,0.3496,0.3457,0.3459,0.3442,0.3417,0.3408,0.3392,0.3386,0.3369,0.336,0.3348,0.3314,0.3296,0.3315,0.3282,0.3301,0.3302,0.3307,0.3307,0.3381,0.3303,0.3303,0.3302,0.3302,0,0.3576,0.3583,0.3533,0.3535,0.3541,0.3502,0.3509,0.3489,0.3466,0.3463,0.3425,0.3422,0.3378,0.337,0.3344,0.3345,0.3341,0.3328,0.3321,0.3331,0.3333,0.3326,0.3323,0.3304,0.3304,0.3303,0.3303,0,0.3648,0.3615,0.3615,0.3578,0.3569,0.3575,0.3543,0.3543,0.3518,0.3514,0.3511,0.3473,0.3462,0.3427,0.3407,0.3389,0.3398,0.3385,0.3407,0.3402,0.3423,0.3421,0.3495,0.3503,0.342,0.3421,0.3421,0,0.3685,0.3689,0.3653,0.3648,0.3633,0.3626,0.3617,0.3579,0.3571,0.3544,0.3547,0.3533,0.352,0.3504,0.3474,0.3458,0.3444,0.3471,0.3442,0.3452,0.3445,0.3445,0.3445,0.3478,0.3479,0.348,0.348,0,0.3754,0.3738,0.3727,0.371,0.3701,0.3686,0.3669,0.3667,0.3624,0.3617,0.3606,0.3596,0.3575,0.3562,0.3541,0.3524,0.3495,0.349,0.3493,0.3504,0.3517,0.351,0.3424,0.3488,0.3488,0.3487,0.3487,0.3486,0.381,0.3812,0.3786,0.3775,0.3758,0.3743,0.3741,0.3716,0.3706,0.3687,0.3664,0.3656,0.3631,0.36,0.3585,0.3577,0.3562,0.3567,0.3568,0.357,0.3575,0.3518,0.3573,0.3573,0.3573,0.3572,0.3572,0,0.3877,0.3859,0.3849,0.3826,0.3818,0.3791,0.3771,0.3765,0.3758,0.3737,0.3725,0.3712,0.3698,0.3667,0.3651,0.365,0.3637,0.3647,0.3647,0.3643,0.359,0.3588,0.3659,0.3659,0.3659,0.3659,0.3659,0.3659,0.3912,0.3913,0.3894,0.3886,0.3867,0.3858,0.3849,0.3834,0.3818,0.3805,0.3793,0.3773,0.3748,0.3729,0.3716,0.3707,0.3703,0.3718,0.3705,0.3655,0.3647,0.3639,0.3638,0.3717,0.3717,0.3759,0.3759,0.376]}]]